Tracking 35274 objects as of 11-Sep-2026
HD Live streaming from Space Station
objects crossing your sky now

FLOCK 3K 12


FLOCK 3K 12 is no longer on orbit
FLOCK 3K 12 is classified as:


NORAD ID: 43903
Int'l Code: 2018-111AD
Launch date: December 27, 2018
Source: United States (US)
Launch site: VOSTOCHNY COSMODROME (VOSTO)
Decay date: 2023-02-14
Your satellite tracking list
Your tracking list is empty




NASA's NSSDC Master Catalog

Two Line Element Set (TLE):
1 43903U 18111AD  23044.45342701  .07228914  23464-5  23249-2 0  9999
2 43903  97.1213 300.8826 0007553 165.2560 194.8954 16.26187582231031
Source of the keplerian elements: AFSPC